When you browse on this site, cookies collect data to enhance your experience and personalize the content and advertising you see.
Visit our Privacy Policy to learn more. By continuing to use the site, you agree to this use of cookies and data.
  • In Czech Republic
  • List of Countries
  • For 7 days
  • Water Temperature
  • Weather Map
  • Weather Widgets
  • user-avatar
    Login

    Hourly Weather Saurimo

    Today, 25 January, Saturday

    Time Temperature Precipitation Wind Pressure Humidity
    00:00 +21°C° 0.2 mm 1 mps 670 mmHg 96%
    01:00 +21°C° 0.2 mm 1 mps 670 mmHg 96%
    02:00 +21°C° 0 mm 1 mps 670 mmHg 96%
    03:00 +21°C° 0 mm 1 mps 669 mmHg 96%
    04:00 +21°C° 0 mm 1 mps 669 mmHg 96%
    05:00 +21°C° 0 mm 1 mps 670 mmHg 95%
    06:00 +22°C° 0 mm 1 mps 670 mmHg 94%
    07:00 +21°C° 0 mm 2 mps 671 mmHg 92%
    08:00 +24°C° 0.7 mm 2 mps 671 mmHg 88%
    09:00 +25°C° 0.7 mm 3 mps 671 mmHg 84%
    10:00 +26°C° 0.7 mm 3 mps 671 mmHg 81%
    11:00 +27°C° 0.9 mm 3 mps 671 mmHg 78%
    12:00 +28°C° 0.9 mm 3 mps 670 mmHg 75%
    13:00 +28°C° 0.9 mm 3 mps 669 mmHg 72%
    14:00 +28°C° 0.7 mm 3 mps 669 mmHg 76%
    15:00 +27°C° 0.7 mm 3 mps 668 mmHg 80%
    16:00 +27°C° 0.7 mm 3 mps 668 mmHg 84%
    17:00 +25°C° 1.1 mm 2 mps 668 mmHg 87%
    18:00 +24°C° 1.1 mm 2 mps 669 mmHg 90%
    19:00 +23°C° 1.1 mm 2 mps 669 mmHg 93%
    20:00 +21°C° 0 mm 2 mps 669 mmHg 94%
    21:00 +21°C° 0 mm 2 mps 670 mmHg 95%
    22:00 +22°C° 0 mm 1 mps 670 mmHg 95%
    23:00 +22°C° 0.1 mm 1 mps 670 mmHg 95%

    Tomorrow, 26 January, Sunday

    Time Temperature Precipitation Wind Pressure Humidity
    00:00 +22°C° 0.1 mm 1 mps 670 mmHg 96%
    01:00 +21°C° 0.1 mm 1 mps 670 mmHg 96%
    02:00 +21°C° 0 mm 1 mps 669 mmHg 96%
    03:00 +21°C° 0 mm 1 mps 669 mmHg 96%
    04:00 +21°C° 0 mm 1 mps 669 mmHg 96%
    05:00 +21°C° 0 mm 1 mps 670 mmHg 95%
    06:00 +21°C° 0 mm 1 mps 670 mmHg 95%
    07:00 +21°C° 0 mm 2 mps 671 mmHg 94%
    08:00 +23°C° 0.4 mm 2 mps 671 mmHg 91%
    09:00 +24°C° 0.4 mm 2 mps 671 mmHg 87%
    10:00 +25°C° 0.4 mm 3 mps 671 mmHg 84%
    11:00 +26°C° 1.1 mm 3 mps 671 mmHg 81%
    12:00 +27°C° 1.1 mm 3 mps 670 mmHg 79%
    13:00 +27°C° 1.1 mm 3 mps 670 mmHg 76%
    14:00 +27°C° 0.9 mm 3 mps 669 mmHg 79%
    15:00 +27°C° 0.9 mm 3 mps 669 mmHg 81%
    16:00 +26°C° 0.9 mm 2 mps 668 mmHg 83%
    17:00 +25°C° 0.6 mm 2 mps 668 mmHg 87%
    18:00 +24°C° 0.6 mm 2 mps 669 mmHg 90%
    19:00 +23°C° 0.6 mm 1 mps 669 mmHg 94%
    20:00 +22°C° 0.1 mm 1 mps 669 mmHg 95%
    21:00 +22°C° 0.1 mm 1 mps 669 mmHg 95%
    22:00 +21°C° 0.1 mm 1 mps 670 mmHg 96%
    23:00 +21°C° 0.2 mm 1 mps 670 mmHg 96%

    Day after tomorrow, 27 January, Monday

    Time Temperature Precipitation Wind Pressure Humidity
    00:00 +21°C° 0.2 mm 1 mps 669 mmHg 96%
    01:00 +21°C° 0.2 mm 1 mps 669 mmHg 96%
    02:00 +21°C° 0.1 mm 1 mps 669 mmHg 96%
    03:00 +21°C° 0.1 mm 1 mps 669 mmHg 96%
    04:00 +21°C° 0.1 mm 1 mps 669 mmHg 96%
    05:00 +21°C° 0.5 mm 1 mps 670 mmHg 95%
    06:00 +20°C° 0.5 mm 2 mps 670 mmHg 95%
    07:00 +21°C° 0.5 mm 2 mps 671 mmHg 94%
    08:00 +21°C° 0.3 mm 2 mps 671 mmHg 94%
    09:00 +21°C° 0.3 mm 2 mps 671 mmHg 94%
    10:00 +21°C° 0.3 mm 3 mps 671 mmHg 94%
    11:00 +21°C° 0.3 mm 3 mps 670 mmHg 92%
    12:00 +21°C° 0.3 mm 3 mps 670 mmHg 90%
    13:00 +22°C° 0.3 mm 3 mps 669 mmHg 88%
    14:00 +24°C° 0.2 mm 3 mps 669 mmHg 86%
    15:00 +24°C° 0.2 mm 3 mps 669 mmHg 83%
    16:00 +25°C° 0.2 mm 3 mps 669 mmHg 80%
    17:00 +24°C° 0.2 mm 2 mps 669 mmHg 84%
    18:00 +23°C° 0.2 mm 2 mps 669 mmHg 87%
    19:00 +21°C° 0.2 mm 1 mps 669 mmHg 90%
    20:00 +21°C° 0.1 mm 1 mps 669 mmHg 90%
    21:00 +20°C° 0.1 mm 2 mps 669 mmHg 90%
    22:00 +20°C° 0.1 mm 2 mps 670 mmHg 90%
    23:00 +20°C° 0 mm 2 mps 670 mmHg 91%

    28 January, Tuesday

    Time Temperature Precipitation Wind Pressure Humidity
    00:00 +21°C° 0 mm 1 mps 669 mmHg 92%
    01:00 +21°C° 0 mm 1 mps 669 mmHg 93%
    02:00 +21°C° 0 mm 1 mps 669 mmHg 93%
    03:00 +21°C° 0 mm 1 mps 669 mmHg 92%
    04:00 +21°C° 0 mm 1 mps 669 mmHg 92%
    05:00 +21°C° 0 mm 1 mps 669 mmHg 92%
    06:00 +20°C° 0 mm 2 mps 670 mmHg 91%
    07:00 +20°C° 0 mm 2 mps 670 mmHg 90%
    08:00 +21°C° 0.3 mm 2 mps 670 mmHg 88%
    09:00 +22°C° 0.3 mm 3 mps 670 mmHg 86%
    10:00 +24°C° 0.3 mm 3 mps 671 mmHg 85%
    11:00 +25°C° 0.3 mm 3 mps 670 mmHg 79%
    12:00 +26°C° 0.3 mm 4 mps 670 mmHg 74%
    13:00 +27°C° 0.3 mm 4 mps 669 mmHg 68%
    14:00 +27°C° 0.2 mm 3 mps 669 mmHg 70%
    15:00 +27°C° 0.2 mm 3 mps 668 mmHg 73%
    16:00 +27°C° 0.2 mm 2 mps 668 mmHg 75%
    17:00 +25°C° 0.3 mm 2 mps 668 mmHg 81%
    18:00 +23°C° 0.3 mm 2 mps 668 mmHg 87%
    19:00 +20°C° 0.3 mm 2 mps 668 mmHg 93%
    20:00 +21°C° 0 mm 1 mps 669 mmHg 93%
    21:00 +21°C° 0 mm 1 mps 669 mmHg 93%
    22:00 +21°C° 0 mm 1 mps 670 mmHg 94%
    23:00 +21°C° 0 mm 1 mps 669 mmHg 94%

    29 January, Wednesday

    Time Temperature Precipitation Wind Pressure Humidity
    00:00 +21°C° 0 mm 1 mps 669 mmHg 94%
    01:00 +21°C° 0 mm 1 mps 669 mmHg 94%
    02:00 +20°C° 0 mm 1 mps 669 mmHg 94%
    03:00 +20°C° 0 mm 1 mps 669 mmHg 95%
    04:00 +20°C° 0 mm 1 mps 668 mmHg 95%
    05:00 +20°C° 0 mm 1 mps 669 mmHg 95%
    06:00 +21°C° 0 mm 1 mps 670 mmHg 94%
    07:00 +20°C° 0 mm 2 mps 670 mmHg 93%
    08:00 +23°C° 0.4 mm 2 mps 671 mmHg 88%
    09:00 +24°C° 0.4 mm 2 mps 671 mmHg 83%
    10:00 +25°C° 0.4 mm 2 mps 671 mmHg 78%
    11:00 +26°C° 1.4 mm 2 mps 671 mmHg 79%
    12:00 +26°C° 1.4 mm 2 mps 670 mmHg 80%
    13:00 +26°C° 1.4 mm 2 mps 670 mmHg 81%
    14:00 +26°C° 1.8 mm 2 mps 669 mmHg 83%
    15:00 +25°C° 1.8 mm 2 mps 669 mmHg 85%
    16:00 +25°C° 1.8 mm 2 mps 669 mmHg 87%
    17:00 +24°C° 1 mm 2 mps 669 mmHg 89%
    18:00 +21°C° 1 mm 2 mps 669 mmHg 91%
    19:00 +20°C° 1 mm 2 mps 669 mmHg 93%
    20:00 +20°C° 0 mm 2 mps 670 mmHg 94%
    21:00 +21°C° 0 mm 1 mps 670 mmHg 95%
    22:00 +20°C° 0 mm 1 mps 670 mmHg 95%
    23:00 +20°C° 0 mm 1 mps 670 mmHg 95%

    30 January, Thursday

    Time Temperature Precipitation Wind Pressure Humidity
    00:00 +18°C° 0 mm 0 mps 670 mmHg 95%
    01:00 +18°C° 0 mm 0 mps 670 mmHg 94%
    02:00 +18°C° 0 mm 0 mps 670 mmHg 95%
    03:00 +20°C° 0 mm 1 mps 670 mmHg 95%
    04:00 +20°C° 0 mm 1 mps 669 mmHg 96%
    05:00 +20°C° 0 mm 1 mps 670 mmHg 95%
    06:00 +21°C° 0 mm 1 mps 670 mmHg 94%
    07:00 +19°C° 0 mm 0 mps 671 mmHg 93%
    08:00 +22°C° 0 mm 1 mps 671 mmHg 86%
    09:00 +24°C° 0 mm 1 mps 672 mmHg 78%
    10:00 +26°C° 0 mm 1 mps 672 mmHg 71%
    11:00 +27°C° 0.1 mm 1 mps 672 mmHg 67%
    12:00 +28°C° 0.1 mm 2 mps 671 mmHg 64%
    13:00 +29°C° 0.1 mm 2 mps 671 mmHg 60%
    14:00 +28°C° 1.3 mm 2 mps 670 mmHg 67%
    15:00 +27°C° 1.3 mm 2 mps 669 mmHg 75%
    16:00 +26°C° 1.3 mm 2 mps 669 mmHg 82%
    17:00 +25°C° 0.7 mm 2 mps 669 mmHg 86%
    18:00 +23°C° 0.7 mm 2 mps 669 mmHg 90%
    19:00 +20°C° 0.7 mm 2 mps 670 mmHg 93%
    20:00 +20°C° 0.4 mm 2 mps 670 mmHg 94%
    21:00 +20°C° 0.4 mm 2 mps 670 mmHg 95%
    22:00 +21°C° 0.4 mm 1 mps 671 mmHg 96%
    23:00 +21°C° 0.2 mm 1 mps 671 mmHg 96%
    Show more